Windom, MN

1:38 AM CDT on May 30, 2017 (GMT -0500)
Windom Municipal

Weather History for KMWM - May, 2013

Change the Weather History Date:

Monday, May 27, 2013

  Actual Average Record
Temperature  
Mean Temperature 56 °F -  
Max Temperature 59 °F 73 °F 94 °F (1969)
Min Temperature 53 °F 51 °F 35 °F (1971)
Degree Days  
Heating Degree Days 9    
Growing Degree Days 6 (Base 50)    
Moisture  
Dew Point 54 °F    
Average Humidity 95    
Maximum Humidity 100    
Minimum Humidity 88    
Precipitation  
Precipitation 0.12 in - - ()
Sea Level Pressure  
Sea Level Pressure 29.86 in    
Wind  
Wind Speed 10 mph (ENE)    
Max Wind Speed 16 mph    
Max Gust Speed 24 mph    
Visibility 4 miles    
Events Fog , Rain , Thunderstorm    
Averages and records for this station are not official NWS values.
T = Trace of Precipitation, MM = Missing Value Source: NWS Daily Summary

Daily Weather History Graph

Daily Weather History Graph

Search for Another Location

Airport or City:

Trip Planner

Search our weather history database for the weather conditions in past years. The results will help you decide how hot, cold, wet, or windy it might be!

Date:

Astronomy

May. 27, 2013 Rise Set
Actual Time 5:43 AM CDT 8:52 PM CDT
Civil Twilight 5:08 AM CDT 9:26 PM CDT
Nautical Twilight 4:24 AM CDT 10:11 PM CDT
Astronomical Twilight 3:30 AM CDT 11:06 PM CDT
Moon 11:29 PM CDT (5/27) 8:23 AM CDT (5/27)
Length of Visible Light 16h 17m
Length of Day
15h 08m
Waning Gibbous, 91% of the Moon is Illuminated
May 27
Waning Gibbous
May 31
Last Quarter
Jun 8
New
Jun 16
First Quarter
Jun 23
Full

Hourly Weather History & Observations

Time (CDT) Temp. Dew Point Humidity Pressure Visibility Wind Dir Wind Speed Gust Speed Precip Events Conditions
12:13 AM 53.6 °F 51.8 °F 94% 30.01 in 5.0 mi ESE 6.9 mph - N/A   Overcast
12:32 AM 53.6 °F 51.8 °F 94% 29.98 in 4.0 mi ESE 15.0 mph - N/A   Overcast
12:53 AM 53.6 °F 51.8 °F 94% 29.96 in 4.0 mi ESE 15.0 mph 20.7 mph N/A   Overcast
1:13 AM 53.6 °F 51.8 °F 94% 29.97 in 3.0 mi East 8.1 mph - N/A   Overcast
1:32 AM 53.6 °F 51.8 °F 94% 29.96 in 2.0 mi East 9.2 mph - N/A   Overcast
1:53 AM 53.6 °F 51.8 °F 94% 29.94 in 1.5 mi East 13.8 mph 19.6 mph N/A   Overcast
2:13 AM 53.6 °F 51.8 °F 94% 29.94 in 1.2 mi ENE 12.7 mph - N/A   Overcast
2:32 AM 53.6 °F 51.8 °F 94% 29.94 in 1.0 mi East 5.8 mph 10.4 mph N/A Thunderstorm Overcast
2:53 AM 53.6 °F 51.8 °F 94% 29.96 in 1.2 mi ESE 5.8 mph - N/A Thunderstorm Overcast
3:13 AM 53.6 °F 51.8 °F 94% 29.93 in 0.8 mi ENE 6.9 mph - N/A   Overcast
3:32 AM 53.6 °F 51.8 °F 94% 29.93 in 0.5 mi East 9.2 mph - N/A Fog Fog
3:53 AM 53.6 °F 51.8 °F 94% 29.94 in 0.5 mi East 9.2 mph - N/A Rain Light Rain
4:13 AM 53.6 °F 51.8 °F 94% 29.92 in 0.5 mi ESE 8.1 mph - 0.01 in Rain Rain
4:32 AM 53.6 °F 51.8 °F 94% 29.92 in 1.5 mi ESE 10.4 mph - 0.03 in Rain , Thunderstorm Light Thunderstorms and Rain
4:52 AM 53.6 °F 51.8 °F 94% 29.92 in 2.0 mi ESE 5.8 mph - 0.06 in Rain , Thunderstorm Rain
5:13 AM 53.6 °F 51.8 °F 94% 29.90 in 2.5 mi ESE 5.8 mph - 0.02 in Rain Rain
5:32 AM 53.6 °F 51.8 °F 94% 29.89 in 2.5 mi NE 4.6 mph - 0.04 in Rain Rain
5:52 AM 53.6 °F 51.8 °F 94% 29.90 in 2.5 mi ENE 5.8 mph - 0.05 in Rain Rain
6:13 AM 53.6 °F 51.8 °F 94% 29.91 in 1.8 mi East 6.9 mph - N/A Rain Light Rain
6:32 AM 53.6 °F 51.8 °F 94% 29.90 in 1.5 mi East 5.8 mph - N/A Rain Light Rain
6:52 AM 53.6 °F 51.8 °F 94% 29.87 in 1.5 mi ENE 6.9 mph - 0.01 in Rain Light Rain
7:12 AM 53.6 °F 51.8 °F 94% 29.87 in 0.8 mi East 12.7 mph - N/A Rain Light Rain
7:32 AM 53.6 °F 53.6 °F 100% 29.87 in 1.0 mi East 15.0 mph - N/A   Light Drizzle
7:52 AM 53.6 °F 53.6 °F 100% 29.85 in 2.5 mi East 15.0 mph 19.6 mph N/A   Light Drizzle
8:12 AM 55.4 °F 53.6 °F 94% 29.83 in 2.0 mi ENE 16.1 mph 20.7 mph N/A Rain Light Rain
8:33 AM 55.4 °F 53.6 °F 94% 29.86 in 3.0 mi East 13.8 mph 18.4 mph N/A Rain Light Rain
8:52 AM 55.4 °F 53.6 °F 94% 29.88 in 5.0 mi ENE 11.5 mph - N/A Rain Light Rain
9:12 AM 55.4 °F 53.6 °F 94% 29.88 in 5.0 mi ENE 10.4 mph - N/A   Drizzle
9:33 AM 55.4 °F 53.6 °F 94% 29.88 in 3.0 mi NE 12.7 mph - N/A   Light Drizzle
9:52 AM 55.4 °F 53.6 °F 94% 29.86 in 2.5 mi NE 15.0 mph - N/A Rain Light Rain
10:12 AM 55.4 °F 53.6 °F 94% 29.87 in 2.5 mi ENE 15.0 mph 21.9 mph N/A   Light Drizzle
10:33 AM 55.4 °F 53.6 °F 94% 29.85 in 4.0 mi East 12.7 mph - N/A   Overcast
10:52 AM 57.2 °F 55.4 °F 94% 29.84 in 10.0 mi East 16.1 mph 24.2 mph N/A   Overcast
11:12 AM 57.2 °F 55.4 °F 94% 29.83 in 10.0 mi East 11.5 mph - N/A   Overcast
11:33 AM 57.2 °F 55.4 °F 94% 29.83 in 10.0 mi East 16.1 mph - N/A   Overcast
11:52 AM 57.2 °F 55.4 °F 94% 29.82 in 10.0 mi East 15.0 mph - N/A   Overcast
12:12 PM 57.2 °F 55.4 °F 94% 29.82 in 10.0 mi East 10.4 mph 18.4 mph N/A   Overcast
12:33 PM 59.0 °F 55.4 °F 88% 29.82 in 10.0 mi East 9.2 mph - N/A   Overcast
12:53 PM 57.2 °F 55.4 °F 94% 29.84 in 10.0 mi Calm Calm - N/A   Overcast
1:12 PM 57.2 °F 55.4 °F 94% 29.84 in 10.0 mi Calm Calm - N/A   Overcast
1:33 PM 57.2 °F 55.4 °F 94% 29.84 in 10.0 mi East 9.2 mph - N/A   Overcast
1:53 PM 57.2 °F 55.4 °F 94% 29.85 in 10.0 mi East 9.2 mph - N/A   Overcast
2:12 PM 57.2 °F 55.4 °F 94% 29.85 in 10.0 mi ENE 9.2 mph - N/A   Overcast
2:33 PM 57.2 °F 55.4 °F 94% 29.85 in 7.0 mi NE 8.1 mph - N/A   Overcast
2:52 PM 57.2 °F 55.4 °F 94% 29.86 in 7.0 mi Calm Calm - N/A   Overcast
3:12 PM 57.2 °F 55.4 °F 94% 29.85 in 7.0 mi Calm Calm - N/A   Overcast
3:33 PM 57.2 °F 55.4 °F 94% 29.84 in 2.0 mi ENE 13.8 mph - N/A   Overcast
3:52 PM 57.2 °F 55.4 °F 94% 29.84 in 1.8 mi ENE 10.4 mph - N/A   Overcast
4:12 PM 57.2 °F 55.4 °F 94% 29.84 in 3.0 mi ENE 5.8 mph - N/A   Overcast
4:33 PM 57.2 °F 55.4 °F 94% 29.83 in 3.0 mi ENE 10.4 mph - N/A   Overcast
4:52 PM 57.2 °F 55.4 °F 94% 29.83 in 2.0 mi ENE 8.1 mph - N/A   Overcast
5:12 PM 57.2 °F 55.4 °F 94% 29.83 in 2.0 mi NE 10.4 mph - N/A   Overcast
5:33 PM 55.4 °F 55.4 °F 100% 29.82 in 1.8 mi NE 10.4 mph - N/A   Light Drizzle
5:52 PM 55.4 °F 53.6 °F 94% 29.81 in 2.5 mi ENE 15.0 mph - N/A   Overcast
6:12 PM 57.2 °F 55.4 °F 94% 29.81 in 4.0 mi ENE 15.0 mph - N/A   Overcast
6:33 PM 57.2 °F 55.4 °F 94% 29.81 in 7.0 mi ENE 13.8 mph - N/A   Overcast
6:52 PM 57.2 °F 53.6 °F 88% 29.80 in 10.0 mi ENE 16.1 mph - N/A   Overcast
7:12 PM 57.2 °F 55.4 °F 94% 29.80 in 10.0 mi ENE 12.7 mph - N/A   Overcast
7:33 PM 57.2 °F 53.6 °F 88% 29.82 in 10.0 mi ENE 15.0 mph - N/A   Overcast
7:52 PM 55.4 °F 53.6 °F 94% 29.81 in 10.0 mi ENE 9.2 mph 16.1 mph N/A   Overcast
8:12 PM 55.4 °F 53.6 °F 94% 29.80 in 5.0 mi ENE 11.5 mph - N/A   Overcast
8:32 PM 55.4 °F 53.6 °F 94% 29.80 in 7.0 mi ENE 10.4 mph - N/A   Overcast
8:52 PM 55.4 °F 53.6 °F 94% 29.81 in 4.0 mi ENE 6.9 mph - N/A   Overcast
9:13 PM 55.4 °F 53.6 °F 94% 29.80 in 2.0 mi ENE 8.1 mph - N/A   Overcast
9:32 PM 55.4 °F 53.6 °F 94% 29.81 in 2.5 mi ENE 9.2 mph - N/A Rain Light Rain
9:52 PM 55.4 °F 55.4 °F 100% 29.80 in 4.0 mi ENE 9.2 mph - N/A Rain Light Rain
10:13 PM 55.4 °F 55.4 °F 100% 29.80 in 3.0 mi ENE 11.5 mph - N/A   Overcast
10:32 PM 55.4 °F 55.4 °F 100% 29.80 in 3.0 mi ENE 9.2 mph - N/A   Overcast
10:52 PM 55.4 °F 55.4 °F 100% 29.81 in 1.8 mi ENE 10.4 mph - N/A   Overcast
11:13 PM 55.4 °F 55.4 °F 100% 29.80 in 0.8 mi East 9.2 mph - N/A   Overcast
11:32 PM 55.4 °F 55.4 °F 100% 29.79 in 0.8 mi ENE 10.4 mph - N/A   Overcast
11:52 PM 55.4 °F 55.4 °F 100% 29.79 in 0.5 mi ENE 10.4 mph - N/A Fog Fog